Location: Carrières
(48.9495°N, 2.0407°E)
Time: 03:29:06
(UTC+00:00)

Transit 2A Rocket - Pass Details

Date: 24 April 2024
Orbit: 585 x 908 km, 66.7° (Epoch: 19 May)

Event Time Altitude Azimuth Distance (km) Brightness Sun altitude
Rises 15:33:23 0° 318° (NW) 3,156 8.5 32.0°
Reaches altitude 10° 15:37:14 10° 347° (NNW) 2,316 7.5 31.4°
Maximum altitude 15:39:29 13° 13° (NNE) 2,185 7.2 31.1°
Drops below altitude 10° 15:41:49 10° 38° (NE) 2,407 7.2 30.7°
Sets 15:46:00 0° 66° (ENE) 3,415 7.8 30.1°
